• In Kazakhstan
  • List of Countries
  • For 7 days
  • Water Temperature
  • Satellite Maps
  • Weather Map
  • News
  • Weather Widgets
  • user-avatar
    Login

    Hourly Weather Van

    Today, 22 September, Friday

    Time Temperature Precipitation Wind Pressure Humidity
    00:00 +19°C° 0 mm 2 mps 621 mmHg 41%
    01:00 +18°C° 0 mm 2 mps 621 mmHg 41%
    02:00 +18°C° 0 mm 2 mps 620 mmHg 42%
    03:00 +18°C° 0 mm 2 mps 620 mmHg 38%
    04:00 +18°C° 0 mm 2 mps 620 mmHg 39%
    05:00 +17°C° 0 mm 2 mps 620 mmHg 41%
    06:00 +17°C° 0 mm 2 mps 620 mmHg 42%
    07:00 +20°C° 0 mm 2 mps 620 mmHg 35%
    08:00 +23°C° 0 mm 2 mps 621 mmHg 29%
    09:00 +26°C° 0 mm 2 mps 622 mmHg 23%
    10:00 +27°C° 0 mm 3 mps 622 mmHg 20%
    11:00 +28°C° 0 mm 4 mps 622 mmHg 17%
    12:00 +29°C° 0 mm 4 mps 622 mmHg 15%
    13:00 +29°C° 0 mm 4 mps 622 mmHg 15%
    14:00 +29°C° 0 mm 4 mps 622 mmHg 15%
    15:00 +29°C° 0 mm 5 mps 622 mmHg 15%
    16:00 +27°C° 0 mm 4 mps 621 mmHg 18%
    17:00 +26°C° 0 mm 3 mps 621 mmHg 20%
    18:00 +24°C° 0 mm 2 mps 620 mmHg 23%
    19:00 +23°C° 0 mm 2 mps 620 mmHg 26%
    20:00 +21°C° 0 mm 1 mps 620 mmHg 29%
    21:00 +20°C° 0 mm 1 mps 620 mmHg 33%
    22:00 +19°C° 0 mm 1 mps 620 mmHg 34%
    23:00 +19°C° 0 mm 1 mps 620 mmHg 36%

    Tomorrow, 23 September, Saturday

    Time Temperature Precipitation Wind Pressure Humidity
    00:00 +18°C° 0 mm 1 mps 620 mmHg 38%
    01:00 +16°C° 0 mm 1 mps 620 mmHg 39%
    02:00 +16°C° 0 mm 1 mps 620 mmHg 40%
    03:00 +15°C° 0 mm 1 mps 620 mmHg 41%
    04:00 +15°C° 0 mm 1 mps 620 mmHg 43%
    05:00 +15°C° 0 mm 1 mps 620 mmHg 44%
    06:00 +14°C° 0 mm 1 mps 620 mmHg 45%
    07:00 +18°C° 0 mm 1 mps 621 mmHg 39%
    08:00 +21°C° 0 mm 1 mps 622 mmHg 32%
    09:00 +24°C° 0 mm 1 mps 623 mmHg 25%
    10:00 +25°C° 0 mm 2 mps 623 mmHg 22%
    11:00 +26°C° 0 mm 2 mps 623 mmHg 18%
    12:00 +27°C° 0 mm 3 mps 623 mmHg 15%
    13:00 +28°C° 0 mm 3 mps 623 mmHg 14%
    14:00 +28°C° 0 mm 4 mps 623 mmHg 13%
    15:00 +28°C° 0 mm 4 mps 623 mmHg 12%
    16:00 +26°C° 0 mm 4 mps 622 mmHg 13%
    17:00 +24°C° 0 mm 3 mps 622 mmHg 15%
    18:00 +22°C° 0 mm 3 mps 621 mmHg 16%
    19:00 +20°C° 0 mm 2 mps 621 mmHg 18%
    20:00 +20°C° 0 mm 1 mps 621 mmHg 19%
    21:00 +18°C° 0 mm 1 mps 621 mmHg 21%
    22:00 +16°C° 0 mm 1 mps 621 mmHg 21%
    23:00 +16°C° 0 mm 1 mps 621 mmHg 21%

    Day after tomorrow, 24 September, Sunday

    Time Temperature Precipitation Wind Pressure Humidity
    00:00 +15°C° 0 mm 1 mps 621 mmHg 21%
    01:00 +14°C° 0 mm 1 mps 621 mmHg 22%
    02:00 +14°C° 0 mm 1 mps 621 mmHg 24%
    03:00 +13°C° 0 mm 1 mps 621 mmHg 25%
    04:00 +13°C° 0 mm 1 mps 621 mmHg 27%
    05:00 +12°C° 0 mm 1 mps 620 mmHg 28%
    06:00 +12°C° 0 mm 1 mps 620 mmHg 30%
    07:00 +15°C° 0 mm 1 mps 622 mmHg 26%
    08:00 +19°C° 0 mm 1 mps 623 mmHg 23%
    09:00 +22°C° 0 mm 1 mps 624 mmHg 19%
    10:00 +24°C° 0 mm 2 mps 624 mmHg 16%
    11:00 +25°C° 0 mm 2 mps 624 mmHg 13%
    12:00 +26°C° 0 mm 3 mps 624 mmHg 11%
    13:00 +27°C° 0 mm 3 mps 624 mmHg 10%
    14:00 +27°C° 0 mm 3 mps 624 mmHg 9%
    15:00 +27°C° 0 mm 4 mps 623 mmHg 8%
    16:00 +25°C° 0 mm 3 mps 623 mmHg 10%
    17:00 +23°C° 0 mm 2 mps 622 mmHg 11%
    18:00 +20°C° 0 mm 1 mps 622 mmHg 13%
    19:00 +19°C° 0 mm 1 mps 622 mmHg 14%
    20:00 +18°C° 0 mm 1 mps 622 mmHg 15%
    21:00 +16°C° 0 mm 1 mps 622 mmHg 16%
    22:00 +15°C° 0 mm 1 mps 622 mmHg 18%
    23:00 +15°C° 0 mm 1 mps 622 mmHg 19%

    25 September, Monday

    Time Temperature Precipitation Wind Pressure Humidity
    00:00 +13°C° 0 mm 0 mps 622 mmHg 21%
    01:00 +13°C° 0 mm 0 mps 621 mmHg 23%
    02:00 +12°C° 0 mm 0 mps 621 mmHg 25%
    03:00 +12°C° 0 mm 0 mps 621 mmHg 27%
    04:00 +12°C° 0 mm 1 mps 621 mmHg 29%
    05:00 +12°C° 0 mm 1 mps 621 mmHg 32%
    06:00 +12°C° 0 mm 1 mps 621 mmHg 34%
    07:00 +15°C° 0 mm 1 mps 622 mmHg 30%
    08:00 +19°C° 0 mm 1 mps 623 mmHg 26%
    09:00 +22°C° 0 mm 1 mps 624 mmHg 22%
    10:00 +23°C° 0 mm 2 mps 624 mmHg 20%
    11:00 +24°C° 0 mm 2 mps 624 mmHg 17%
    12:00 +25°C° 0 mm 2 mps 624 mmHg 14%
    13:00 +26°C° 0 mm 3 mps 624 mmHg 14%
    14:00 +26°C° 0 mm 3 mps 624 mmHg 14%
    15:00 +26°C° 0 mm 4 mps 623 mmHg 14%
    16:00 +24°C° 0 mm 3 mps 623 mmHg 17%
    17:00 +21°C° 0 mm 2 mps 622 mmHg 20%
    18:00 +20°C° 0 mm 1 mps 622 mmHg 24%
    19:00 +19°C° 0 mm 1 mps 622 mmHg 26%
    20:00 +18°C° 0 mm 1 mps 622 mmHg 27%
    21:00 +16°C° 0 mm 1 mps 622 mmHg 29%
    22:00 +16°C° 0 mm 1 mps 622 mmHg 31%
    23:00 +15°C° 0 mm 1 mps 622 mmHg 33%

    26 September, Tuesday

    Time Temperature Precipitation Wind Pressure Humidity
    00:00 +14°C° 0 mm 0 mps 622 mmHg 36%
    01:00 +14°C° 0 mm 1 mps 622 mmHg 38%
    02:00 +14°C° 0 mm 1 mps 621 mmHg 41%
    03:00 +13°C° 0 mm 1 mps 621 mmHg 44%
    04:00 +13°C° 0 mm 1 mps 621 mmHg 47%
    05:00 +13°C° 0 mm 1 mps 621 mmHg 49%
    06:00 +12°C° 0 mm 1 mps 621 mmHg 52%
    07:00 +15°C° 0 mm 1 mps 622 mmHg 44%
    08:00 +19°C° 0 mm 1 mps 623 mmHg 36%
    09:00 +22°C° 0 mm 1 mps 624 mmHg 28%
    10:00 +23°C° 0 mm 2 mps 624 mmHg 24%
    11:00 +24°C° 0 mm 2 mps 624 mmHg 20%
    12:00 +26°C° 0 mm 3 mps 624 mmHg 16%
    13:00 +26°C° 0 mm 3 mps 624 mmHg 16%
    14:00 +26°C° 0 mm 3 mps 624 mmHg 16%
    15:00 +26°C° 0 mm 4 mps 623 mmHg 15%
    16:00 +25°C° 0 mm 3 mps 623 mmHg 18%
    17:00 +23°C° 0 mm 2 mps 622 mmHg 22%
    18:00 +21°C° 0 mm 1 mps 622 mmHg 25%
    19:00 +20°C° 0 mm 1 mps 622 mmHg 28%
    20:00 +19°C° 0 mm 1 mps 622 mmHg 30%
    21:00 +18°C° 0 mm 1 mps 622 mmHg 32%
    22:00 +16°C° 0 mm 1 mps 622 mmHg 33%
    23:00 +16°C° 0 mm 1 mps 621 mmHg 34%

    27 September, Wednesday

    Time Temperature Precipitation Wind Pressure Humidity
    00:00 +15°C° 0 mm 1 mps 621 mmHg 36%
    01:00 +15°C° 0 mm 1 mps 621 mmHg 37%
    02:00 +14°C° 0 mm 1 mps 621 mmHg 38%
    03:00 +14°C° 0 mm 1 mps 621 mmHg 39%
    04:00 +14°C° 0 mm 1 mps 621 mmHg 40%
    05:00 +13°C° 0 mm 1 mps 621 mmHg 42%
    06:00 +13°C° 0 mm 1 mps 621 mmHg 43%
    07:00 +16°C° 0 mm 1 mps 622 mmHg 37%
    08:00 +20°C° 0 mm 1 mps 623 mmHg 31%
    09:00 +23°C° 0 mm 1 mps 623 mmHg 25%
    10:00 +24°C° 0 mm 2 mps 624 mmHg 23%
    11:00 +25°C° 0 mm 3 mps 624 mmHg 20%
    12:00 +26°C° 0 mm 4 mps 624 mmHg 17%
    13:00 +27°C° 0 mm 4 mps 623 mmHg 16%
    14:00 +27°C° 0 mm 4 mps 623 mmHg 15%
    15:00 +27°C° 0 mm 5 mps 623 mmHg 14%
    16:00 +25°C° 0 mm 4 mps 622 mmHg 16%
    17:00 +23°C° 0 mm 4 mps 622 mmHg 19%
    18:00 +21°C° 0 mm 3 mps 622 mmHg 21%
    19:00 +20°C° 0 mm 3 mps 621 mmHg 24%
    20:00 +18°C° 0 mm 2 mps 621 mmHg 28%
    21:00 +17°C° 0 mm 2 mps 621 mmHg 31%
    22:00 +16°C° 0 mm 2 mps 621 mmHg 33%
    23:00 +15°C° 0 mm 2 mps 621 mmHg 35%
    Show more